Location: BGSU Observatory
(41.3799°N, 83.6397°W)
Time: 00:22:12
(UTC-04:00)

Amateur Radio Satellites - All Passes

Search period start: 30 June 2016 23:52
Search period end: 01 July 2016 23:52
Location: BGSU Observatory, 41.3799°N, 83.6397°W

Satellite Date Start Highest point End Downlink Frequencies (MHz)
Time Altitude Azimuth
VELOX 1 30 Jun 23:54:52 23:58:54 36° 70° (ENE) 00:02:56 145.980
RS-15 30 Jun 23:58:51 00:07:12 22° 262° (W) 00:15:31 29.354- 29.394
AO-85 01 Jul 00:00:15 00:03:15 15° 323° (NW) 00:06:10 145.980
ANTELSAT 01 Jul 00:11:38 00:16:19 75° 284° (WNW) 00:21:00 437.575/2403.000
HUMSAT D 01 Jul 00:12:37 00:15:14 16° 268° (W) 00:17:52 437.325/437.525
50 SAT 01 Jul 00:16:58 00:20:40 68° 76° (ENE) 00:24:24 437.505
SPROUT 01 Jul 00:19:13 00:22:49 28° 69° (ENE) 00:26:27 437.525
UKube-1 01 Jul 00:22:05 00:26:10 44° 71° (ENE) 00:30:17 .
AISAT 01 Jul 00:35:37 00:40:01 77° 257° (WSW) 00:44:25 437.250
ESTCUBE 1 01 Jul 00:42:11 00:46:31 43° 261° (W) 00:50:52 437.505/2401.250
DX 1 01 Jul 00:46:35 00:50:54 78° 256° (WSW) 00:55:16 434.975-435.025
NANOSAT C BR1 01 Jul 00:48:17 00:52:21 42° 99° (E) 00:56:24 145.865
Cosmos 2491 01 Jul 00:49:18 00:57:31 48° 88° (E) 01:05:44 435.465 / 435.565
QB50P1 01 Jul 00:52:43 00:56:54 51° 100° (E) 01:01:02 145.935-145.965
POPSAT HIP 1 01 Jul 00:56:10 01:00:22 55° 100° (E) 01:04:33 437.405
TIGRISAT 01 Jul 01:03:11 01:06:57 25° 293° (WNW) 01:10:44 435.000
Cosmos 2504 01 Jul 01:06:06 01:14:21 40° 72° (ENE) 01:22:11 435.465 / 435.565
DUCHIFAT 1 01 Jul 01:07:29 01:11:43 67° 102° (ESE) 01:15:56 145.980
QB50P2 01 Jul 01:09:07 01:13:25 84° 101° (E) 01:17:42 145.880/145.840
UNISAT 6 01 Jul 01:09:28 01:12:55 21° 294° (WNW) 01:16:22 437.425
POLYITAN 1 01 Jul 01:11:44 01:16:03 86° 106° (ESE) 01:20:21 437.675
CUBEBUG 1 01 Jul 01:16:44 01:20:25 26° 264° (W) 01:24:06 437.445
SO-50 01 Jul 01:17:29 01:22:07 68° 240° (WSW) 01:26:36 436.795
TISAT 1 01 Jul 01:29:37 01:33:32 42° 72° (ENE) 01:37:28 437.305
VELOX 1 01 Jul 01:32:09 01:35:27 21° 266° (W) 01:38:46 145.980
YUBILEINY 01 Jul 01:35:18 01:43:45 53° 271° (W) 01:52:11 435.215
SWISSCUBE 01 Jul 01:36:27 01:38:39 13° 60° (ENE) 01:40:50 437.505
BEESAT 3 01 Jul 01:43:28 01:45:14 13° 109° (ESE) 01:46:59 437.485
BUGSAT 1 01 Jul 01:52:37 01:56:44 83° 286° (WNW) 02:00:54 437.445
JAS-2 01 Jul 01:53:45 01:59:04 45° 98° (E) 02:04:01 435.910
SPROUT 01 Jul 01:55:13 01:58:43 25° 265° (W) 02:02:15 437.525
UKube-1 01 Jul 01:59:44 02:02:25 16° 267° (W) 02:05:07 .
BEESAT 01 Jul 01:59:58 02:03:24 20° 64° (ENE) 02:06:51 436.000
ITUPSAT 1 01 Jul 02:02:39 02:06:11 21° 64° (ENE) 02:09:45 437.325
PCSat 01 Jul 02:09:38 02:14:49 47° 113° (ESE) 02:20:00 145.827
Oscar 19 01 Jul 02:22:18 02:26:47 30° 96° (E) 02:31:15 437.125/150
NANOSAT C BR1 01 Jul 02:24:58 02:27:45 17° 295° (WNW) 02:30:32 145.865
BEESAT 2 01 Jul 02:25:15 02:28:11 20° 112° (ESE) 02:31:09 435.950
QB50P1 01 Jul 02:29:49 02:32:14 15° 296° (WNW) 02:34:40 145.935-145.965
POPSAT HIP 1 01 Jul 02:33:28 02:35:42 14° 296° (WNW) 02:37:56 437.405
DUCHIFAT 1 01 Jul 02:45:21 02:46:51 12° 298° (WNW) 02:48:21 145.980
Cosmos 2491 01 Jul 02:46:29 02:54:29 38° 288° (WNW) 03:02:29 435.465 / 435.565
Cosmos 2504 01 Jul 02:59:30 03:07:48 47° 272° (W) 03:15:44 435.465 / 435.565
Gurwin Techsat 1B 01 Jul 03:00:20 03:05:01 30° 96° (E) 03:09:39 435.225
TISAT 1 01 Jul 03:06:50 03:09:23 16° 268° (W) 03:11:57 437.305
O/OREOS (USA 219) 01 Jul 03:09:59 03:14:28 76° 111° (ESE) 03:18:57 437.305
SWISSCUBE 01 Jul 03:11:00 03:15:48 76° 258° (WSW) 03:20:38 437.505
BEESAT 3 01 Jul 03:18:35 03:22:26 55° 305° (NW) 03:26:19 437.485
BEESAT 01 Jul 03:36:15 03:40:50 46° 261° (W) 03:45:28 436.000
ITUPSAT 1 01 Jul 03:39:07 03:43:42 44° 261° (W) 03:48:19 437.325
JAS-2 01 Jul 03:39:35 03:43:49 23° 298° (WNW) 03:47:50 435.910
KKS-1 01 Jul 03:42:23 03:45:59 25° 67° (ENE) 03:49:35 437.445
MOZHAYETS 4 01 Jul 03:51:52 03:55:49 28° 68° (ENE) 03:59:48
PCSat 01 Jul 03:53:48 03:58:24 28° 311° (NW) 04:03:03 145.827
Oscar 19 01 Jul 04:01:32 04:06:04 33° 292° (WNW) 04:10:36 437.125/150
BEESAT 2 01 Jul 04:02:08 04:05:48 35° 309° (NW) 04:09:30 435.950
STARS 01 Jul 04:07:17 04:10:43 23° 67° (ENE) 04:14:09 437.465
AIST 1 01 Jul 04:09:43 04:13:24 27° 75° (ENE) 04:17:03
ITAMSAT 1 01 Jul 04:29:26 04:34:41 73° 103° (ESE) 04:39:53 435.822/435.867
AO-7 01 Jul 04:32:07 04:39:35 35° 97° (E) 04:46:59 29.400- 29.500
Gurwin Techsat 1B 01 Jul 04:40:11 04:44:57 34° 292° (WNW) 04:49:42 435.225
O/OREOS (USA 219) 01 Jul 04:52:27 04:54:26 13° 309° (NW) 04:56:25 437.305
AIST 2 01 Jul 05:06:37 05:10:39 59° 119° (ESE) 05:14:43 435.215
AO-85 01 Jul 05:09:38 05:12:24 15° 38° (NE) 05:15:01 145.980
KKS-1 01 Jul 05:18:31 05:22:25 30° 263° (W) 05:26:21 437.445
CUBESAT XI-V 01 Jul 05:26:40 05:30:52 33° 70° (ENE) 05:35:04 437.345
MOZHAYETS 4 01 Jul 05:28:55 05:32:55 29° 264° (W) 05:36:58
Cosmos 2499 01 Jul 05:34:36 05:42:06 30° 68° (ENE) 05:49:10 435.465 / 435.565
GONETS M04 01 Jul 05:36:45 05:45:03 45° 74° (ENE) 05:53:20
STARS 01 Jul 05:42:59 05:46:53 32° 263° (W) 05:50:50 437.465
AIST 1 01 Jul 05:47:30 05:50:51 23° 271° (W) 05:54:11
PHONESAT 2.4 01 Jul 06:03:27 06:05:38 18° 152° (SSE) 06:07:48 2401.200-2431.200
ITAMSAT 1 01 Jul 06:10:32 06:13:32 16° 300° (WNW) 06:16:32 435.822/435.867
STRAND 1 01 Jul 06:21:03 06:22:08 11° 57° (ENE) 06:23:14 437.568
AO-7 01 Jul 06:24:31 06:32:36 55° 296° (WNW) 06:40:38 29.400- 29.500
BRITE-PL 01 Jul 06:27:04 06:28:10 11° 90° (E) 06:29:16 437.365/2234.400
HORYU 2 01 Jul 06:33:58 06:38:30 83° 103° (ESE) 06:42:59 437.375
AIST 2 01 Jul 06:46:48 06:49:30 17° 317° (NW) 06:52:13 435.215
AO-85 01 Jul 06:49:01 06:53:32 79° 239° (WSW) 06:57:38 145.980
CUSAT 1 01 Jul 06:49:35 06:55:01 22° 89° (E) 06:59:50 437.405
Cubesat XI-IV 01 Jul 06:57:31 07:01:35 21° 93° (E) 07:05:35 437.490
CUBESAT XI-V 01 Jul 07:04:23 07:08:16 25° 266° (W) 07:12:08 437.345
NOAA 18 01 Jul 07:14:28 07:19:27 33° 97° (E) 07:24:24 137.9125
Cosmos 2499 01 Jul 07:27:13 07:35:46 61° 269° (W) 07:43:45 435.465 / 435.565
CUTE-I 01 Jul 07:30:11 07:35:19 42° 99° (E) 07:40:23 437.470
DOVE 4 01 Jul 07:31:18 07:33:12 12° 91° (E) 07:35:08 437.250
ISS 01 Jul 07:33:16 07:35:06 14° 131° (SE) 07:36:56 145.825
GONETS M04 01 Jul 07:33:50 07:41:43 40° 274° (W) 07:49:38
DANDE 01 Jul 07:36:54 07:43:45 29° 88° (E) 07:50:05 436.750
PHONESAT 2.4 01 Jul 07:38:52 07:41:53 57° 168° (SSE) 07:44:54 2401.200-2431.200
NOAA 15 01 Jul 07:48:53 07:54:10 86° 104° (ESE) 07:59:25 137.62
LilacSat-2 01 Jul 07:51:42 07:55:35 76° 102° (ESE) 07:59:29 437.200
STRAND 1 01 Jul 07:55:17 08:00:26 79° 75° (ENE) 08:05:37 437.568
BRITE-PL 01 Jul 08:02:59 08:07:03 57° 286° (WNW) 08:11:12 437.365/2234.400
HORYU 2 01 Jul 08:13:16 08:14:22 11° 300° (WNW) 08:15:27 437.375
AO-7 01 Jul 08:20:12 08:23:30 13° 317° (NW) 08:26:49 29.400- 29.500
GOMX 1 01 Jul 08:21:27 08:25:42 85° 281° (W) 08:30:09 467.674
CUSAT 1 01 Jul 08:29:10 08:36:46 69° 281° (W) 08:43:02 437.405
CUTE 1.7 + AOD 2 01 Jul 08:30:27 08:32:18 13° 90° (E) 08:34:08 437.475
HO-68 01 Jul 08:36:13 08:41:54 24° 93° (E) 08:47:32 435.675
Cubesat XI-IV 01 Jul 08:36:42 08:41:53 50° 290° (WNW) 08:47:03 437.490
PRISM 01 Jul 08:48:17 08:52:10 40° 71° (ENE) 08:56:03 437.425
NOAA 18 01 Jul 08:55:06 09:00:04 35° 294° (WNW) 09:05:02 137.9125
AAUSAT CUBESAT 2 01 Jul 09:01:14 09:01:28 10° 89° (E) 09:01:43 437.432
DOVE 4 01 Jul 09:06:53 09:11:13 61° 285° (WNW) 09:15:46 437.250
ISS 01 Jul 09:07:57 09:11:11 65° 327° (NNW) 09:14:26 145.825
CUTE-I 01 Jul 09:10:44 09:15:06 26° 295° (WNW) 09:19:27 437.470
PHONESAT 2.4 01 Jul 09:15:21 09:18:25 74° 185° (S) 09:21:28 2401.200-2431.200
DANDE 01 Jul 09:17:53 09:26:13 64° 282° (WNW) 09:33:41 436.750
CUBEBUG 2 01 Jul 09:19:11 09:22:16 17° 92° (E) 09:25:23 437.445
NOAA 15 01 Jul 09:30:50 09:33:12 13° 302° (WNW) 09:35:33 137.62
ZACube-1 01 Jul 09:34:29 09:35:19 10° 89° (E) 09:36:08 437.345
COMPASS 1 01 Jul 09:35:12 09:39:00 33° 97° (E) 09:42:46 437.405
Oscar 11 01 Jul 09:38:02 09:39:25 11° 89° (E) 09:40:48 145.826/435.025
STRAND 1 01 Jul 09:38:16 09:40:11 12° 271° (W) 09:42:07 437.568
CINEMA 3 01 Jul 09:40:44 09:45:22 90° 333° (NNW) 09:50:12 145.822/145.860
CANX-2 01 Jul 09:44:47 09:49:06 81° 283° (WNW) 09:53:21 2200.000
FUNcube-1 01 Jul 09:48:49 09:51:24 15° 91° (E) 09:53:57 145.935
AUBIESAT-1 01 Jul 09:55:09 09:57:24 14° 98° (E) 09:59:43 437.475
UWE-3 01 Jul 09:59:29 10:03:36 31° 96° (E) 10:07:44 435.000/436.395/437.385
BEESAT 3 01 Jul 10:00:01 10:01:18 11° 39° (NE) 10:02:32 437.485
SEEDS 01 Jul 10:02:41 10:06:57 81° 283° (WNW) 10:11:08 437.485
RS-15 01 Jul 10:03:30 10:07:55 13° 93° (E) 10:12:23 29.354- 29.394
CUTE 1.7 + AOD 2 01 Jul 10:04:17 10:08:29 55° 286° (WNW) 10:12:38 437.475
CUSAT 1 01 Jul 10:17:00 10:19:30 12° 295° (WNW) 10:21:51 437.405
DELFI C3 01 Jul 10:21:13 10:23:24 14° 92° (E) 10:25:35 145.870
HO-68 01 Jul 10:22:57 10:30:04 64° 291° (WNW) 10:37:09 435.675
PRISM 01 Jul 10:24:57 10:27:38 17° 267° (W) 10:30:19 437.425
TIGRISAT 01 Jul 10:25:10 10:28:54 29° 68° (ENE) 10:32:42 435.000
UNISAT 6 01 Jul 10:31:05 10:35:02 35° 70° (ENE) 10:39:04 437.425
AAUSAT CUBESAT 2 01 Jul 10:33:14 10:37:23 65° 285° (WNW) 10:41:29 437.432
M-CUBED/EXP-1 PRIME 01 Jul 10:35:42 10:39:36 49° 105° (ESE) 10:43:47 437.505
BEESAT 2 01 Jul 10:42:56 10:45:28 16° 43° (NE) 10:47:59 435.950
ISS 01 Jul 10:45:49 10:48:07 18° 346° (NNW) 10:50:26 145.825
PHONESAT 2.4 01 Jul 10:52:03 10:54:50 31° 201° (SSW) 10:57:36 2401.200-2431.200
CUBEBUG 2 01 Jul 10:54:38 10:59:06 49° 287° (WNW) 11:03:40 437.445
PCSat 01 Jul 10:57:20 11:02:26 39° 53° (NE) 11:07:30 145.827
Cosmos 2491 01 Jul 10:59:55 11:06:33 23° 65° (ENE) 11:13:08 435.465 / 435.565
DANDE 01 Jul 11:06:33 11:10:11 13° 299° (WNW) 11:13:39 436.750
ZACube-1 01 Jul 11:07:30 11:12:05 76° 285° (WNW) 11:16:40 437.345
ANTELSAT 01 Jul 11:10:19 11:14:38 85° 254° (WSW) 11:19:06 437.575/2403.000
COMPASS 1 01 Jul 11:11:13 11:14:21 21° 293° (WNW) 11:17:27 437.405
Oscar 11 01 Jul 11:11:39 11:15:58 64° 285° (WNW) 11:20:15 145.826/435.025
CINEMA 3 01 Jul 11:21:13 11:21:52 10° 299° (WNW) 11:22:30 145.822/145.860
FUNcube-1 01 Jul 11:23:28 11:27:56 55° 287° (WNW) 11:32:24 145.935
AUBIESAT-1 01 Jul 11:28:08 11:32:02 50° 291° (WNW) 11:36:11 437.475
BEESAT 3 01 Jul 11:35:38 11:39:36 84° 58° (ENE) 11:43:33 437.485
UWE-3 01 Jul 11:36:04 11:39:57 27° 291° (WNW) 11:43:51 435.000/436.395/437.385
NANOSAT C BR1 01 Jul 11:40:33 11:44:15 31° 70° (ENE) 11:47:59 145.865
O/OREOS (USA 219) 01 Jul 11:41:45 11:44:36 16° 54° (NE) 11:47:26 437.305
QB50P1 01 Jul 11:45:11 11:49:02 37° 71° (ENE) 11:52:56 145.935-145.965
POPSAT HIP 1 01 Jul 11:48:39 11:52:33 40° 71° (ENE) 11:56:30 437.405
HUMSAT D 01 Jul 11:53:55 11:58:16 81° 104° (ESE) 12:02:33 437.325/437.525
DELFI C3 01 Jul 11:54:42 11:58:28 42° 288° (WNW) 12:02:12 145.870
DUCHIFAT 1 01 Jul 11:59:15 12:03:15 48° 72° (ENE) 12:07:17 145.980
QB50P2 01 Jul 12:01:31 12:05:39 61° 75° (ENE) 12:09:49 145.880/145.840
TIGRISAT 01 Jul 12:02:00 12:05:34 25° 265° (W) 12:09:12 435.000
POLYITAN 1 01 Jul 12:04:09 12:08:17 63° 74° (ENE) 12:12:27 437.675
JAS-2 01 Jul 12:05:13 12:11:09 27° 64° (ENE) 12:16:38 435.910
RS-15 01 Jul 12:06:31 12:17:40 66° 115° (ESE) 12:29:28 29.354- 29.394
UNISAT 6 01 Jul 12:08:37 12:11:51 20° 267° (W) 12:15:09 437.425
M-CUBED/EXP-1 PRIME 01 Jul 12:11:27 12:13:51 16° 299° (WNW) 12:16:21 437.505
HO-68 01 Jul 12:13:27 12:16:24 13° 310° (NW) 12:19:21 435.675
BEESAT 2 01 Jul 12:19:43 12:23:39 59° 242° (WSW) 12:27:34 435.950
ISS 01 Jul 12:23:40 12:25:33 14° 6° (N) 12:27:24 145.825
AISAT 01 Jul 12:26:29 12:29:42 19° 94° (E) 12:32:53 437.250
ESTCUBE 1 01 Jul 12:34:30 12:38:42 37° 98° (E) 12:42:51 437.505/2401.250
DX 1 01 Jul 12:35:39 12:38:35 18° 93° (E) 12:41:30 434.975-435.025
YUBILEINY 01 Jul 12:39:58 12:47:49 39° 86° (E) 12:55:42 435.215
PCSat 01 Jul 12:41:00 12:45:41 30° 251° (WSW) 12:50:21 145.827
BUGSAT 1 01 Jul 12:42:12 12:46:10 66° 74° (ENE) 12:50:10 437.445
Cosmos 2491 01 Jul 12:55:37 13:04:20 77° 266° (W) 13:13:01 435.465 / 435.565
CUBEBUG 1 01 Jul 13:04:20 13:08:35 53° 100° (E) 13:12:48 437.445
NANOSAT C BR1 01 Jul 13:16:50 13:20:02 21° 266° (W) 13:23:15 145.865
50 SAT 01 Jul 13:19:27 13:23:09 87° 105° (ESE) 13:26:48 437.505
O/OREOS (USA 219) 01 Jul 13:19:58 13:24:21 55° 252° (WSW) 13:28:44 437.305
VELOX 1 01 Jul 13:20:41 13:25:05 73° 102° (ESE) 13:29:29 145.980
QB50P1 01 Jul 13:22:05 13:24:57 18° 267° (W) 13:27:51 145.935-145.965
POPSAT HIP 1 01 Jul 13:25:48 13:28:30 17° 267° (W) 13:31:15 437.405
AIST 2 01 Jul 13:27:54 13:31:51 39° 52° (NE) 13:35:45 435.215
HUMSAT D 01 Jul 13:32:55 13:33:12 10° 299° (WNW) 13:33:30 437.325/437.525
DUCHIFAT 1 01 Jul 13:37:01 13:39:13 14° 269° (W) 13:41:24 145.980
Oscar 19 01 Jul 13:39:02 13:43:54 44° 70° (ENE) 13:48:46 437.125/150
SPROUT 01 Jul 13:40:05 13:44:18 52° 100° (E) 13:48:29 437.525
QB50P2 01 Jul 13:40:40 13:41:52 11° 270° (W) 13:43:03 145.880/145.840
POLYITAN 1 01 Jul 13:43:31 13:44:30 11° 270° (W) 13:45:29 437.675
Cosmos 2504 01 Jul 13:44:34 13:51:33 32° 83° (E) 13:58:52 435.465 / 435.565
UKube-1 01 Jul 13:44:41 13:49:01 82° 105° (ESE) 13:53:19 .
AO-7 01 Jul 13:45:53 13:48:05 11° 41° (NE) 13:50:17 29.400- 29.500
JAS-2 01 Jul 13:48:15 13:55:46 63° 259° (WSW) 14:02:36 435.910
ISS 01 Jul 13:59:45 14:02:44 31° 26° (NNE) 14:05:42 145.825
AISAT 01 Jul 14:02:13 14:06:17 38° 289° (WNW) 14:10:21 437.250
DX 1 01 Jul 14:10:52 14:14:56 41° 289° (WNW) 14:19:00 434.975-435.025
ITAMSAT 1 01 Jul 14:10:56 14:13:49 15° 60° (ENE) 14:16:42 435.822/435.867
ESTCUBE 1 01 Jul 14:11:52 14:15:16 21° 294° (WNW) 14:18:38 437.505/2401.250
RS-15 01 Jul 14:19:58 14:30:50 44° 320° (NW) 14:42:19 29.354- 29.394
Gurwin Techsat 1B 01 Jul 14:21:19 14:26:24 49° 70° (ENE) 14:31:31 435.225
YUBILEINY 01 Jul 14:36:11 14:44:26 46° 286° (WNW) 14:52:48 435.215
CUBEBUG 1 01 Jul 14:42:02 14:44:26 15° 296° (WNW) 14:46:49 437.445
TISAT 1 01 Jul 14:48:33 14:52:47 77° 102° (ESE) 14:56:59 437.305
Cosmos 2491 01 Jul 14:55:38 14:59:35 14° 285° (WNW) 15:03:33 435.465 / 435.565
VELOX 1 01 Jul 14:59:28 15:00:57 12° 299° (WNW) 15:02:27 145.980
AIST 2 01 Jul 15:07:01 15:10:03 20° 248° (WSW) 15:13:05 435.215
SWISSCUBE 01 Jul 15:11:34 15:15:39 27° 96° (E) 15:19:41 437.505
SPROUT 01 Jul 15:17:26 15:19:49 15° 296° (WNW) 15:22:11 437.525
Oscar 19 01 Jul 15:19:28 15:23:24 22° 266° (W) 15:27:21 437.125/150
AO-7 01 Jul 15:30:57 15:38:48 49° 63° (ENE) 15:46:43 29.400- 29.500
SO-50 01 Jul 15:31:19 15:35:50 39° 116° (ESE) 15:40:22 436.795
BEESAT 01 Jul 15:36:06 15:40:41 43° 99° (E) 15:45:14 436.000
ISS 01 Jul 15:36:11 15:39:11 34° 223° (SW) 15:42:11 145.825
Cosmos 2504 01 Jul 15:36:22 15:44:24 56° 284° (WNW) 15:52:59 435.465 / 435.565
ITUPSAT 1 01 Jul 15:39:19 15:43:57 46° 99° (E) 15:48:32 437.325
ITAMSAT 1 01 Jul 15:47:25 15:52:38 75° 257° (WSW) 15:57:53 435.822/435.867
Gurwin Techsat 1B 01 Jul 16:02:37 16:06:35 21° 267° (W) 16:10:35 435.225
TISAT 1 01 Jul 16:27:15 16:27:48 10° 299° (WNW) 16:28:21 437.305
RS-15 01 Jul 16:38:45 16:47:46 23° 353° (N) 16:57:01 29.354- 29.394
AIST 1 01 Jul 16:40:05 16:42:50 17° 86° (E) 16:45:35
SWISSCUBE 01 Jul 16:49:11 16:53:25 32° 292° (WNW) 16:57:38 437.505
KKS-1 01 Jul 17:08:40 17:12:59 48° 100° (E) 17:17:17 437.445
SO-50 01 Jul 17:12:07 17:16:25 30° 313° (NW) 17:20:41 436.795
BEESAT 01 Jul 17:14:36 17:18:09 21° 296° (WNW) 17:21:43 436.000
ITUPSAT 1 01 Jul 17:17:58 17:21:27 20° 296° (WNW) 17:24:55 437.325
MOZHAYETS 4 01 Jul 17:23:01 17:27:38 66° 101° (E) 17:32:13
AO-7 01 Jul 17:24:01 17:31:39 40° 261° (W) 17:39:23 29.400- 29.500
NOAA 15 01 Jul 17:31:27 17:35:02 19° 62° (ENE) 17:38:37 137.62
STARS 01 Jul 17:31:42 17:35:55 42° 99° (E) 17:40:06 437.465
HORYU 2 01 Jul 17:31:44 17:36:10 76° 74° (ENE) 17:40:37 437.375
BRITE-PL 01 Jul 17:37:06 17:40:08 17° 66° (ENE) 17:43:02 437.365/2234.400
Cosmos 2504 01 Jul 17:38:11 17:40:08 11° 307° (NW) 17:42:06 435.465 / 435.565
GOMX 1 01 Jul 17:56:25 17:56:38 10° 62° (ENE) 17:56:52 467.674
Cosmos 2499 01 Jul 18:11:52 18:18:07 24° 79° (E) 18:24:35 435.465 / 435.565
AIST 1 01 Jul 18:16:03 18:20:05 39° 282° (WNW) 18:24:07
Cubesat XI-IV 01 Jul 18:19:18 18:24:07 35° 68° (ENE) 18:28:59 437.490
LilacSat-2 01 Jul 18:33:46 18:37:13 35° 72° (ENE) 18:40:44 437.200
GONETS M04 01 Jul 18:37:44 18:46:01 52° 89° (E) 18:54:19
DOVE 4 01 Jul 18:37:57 18:39:39 12° 64° (ENE) 18:41:20 437.250
NOAA 18 01 Jul 18:40:43 18:46:06 62° 71° (ENE) 18:51:32 137.9125
KKS-1 01 Jul 18:46:17 18:49:10 17° 296° (WNW) 18:52:02 437.445
CUTE-I 01 Jul 18:51:57 18:57:16 70° 73° (ENE) 19:02:37 437.470
RS-15 01 Jul 18:55:08 19:05:43 32° 28° (NNE) 19:16:20 29.354- 29.394
CUBESAT XI-V 01 Jul 18:59:47 19:04:26 81° 102° (ESE) 19:09:01 437.345
MOZHAYETS 4 01 Jul 19:01:54 19:04:14 14° 298° (WNW) 19:06:34
HO-68 01 Jul 19:06:16 19:11:09 20° 55° (NE) 19:16:01 435.675
CUSAT 1 01 Jul 19:06:18 19:09:41 84° 83° (E) 19:12:27 437.405
STARS 01 Jul 19:08:53 19:11:57 19° 295° (WNW) 19:15:01 437.465
NOAA 15 01 Jul 19:09:07 19:14:20 60° 259° (WSW) 19:19:34 137.62
BRITE-PL 01 Jul 19:13:27 19:18:18 53° 260° (W) 19:22:49 437.365/2234.400
GOMX 1 01 Jul 19:29:39 19:34:11 79° 258° (WSW) 19:38:30 467.674
Cubesat XI-IV 01 Jul 19:59:33 20:04:12 30° 264° (W) 20:08:53 437.490
DANDE 01 Jul 20:00:44 20:05:13 63° 264° (W) 20:08:35 436.750
Cosmos 2499 01 Jul 20:01:50 20:10:14 75° 279° (W) 20:19:08 435.465 / 435.565
STRAND 1 01 Jul 20:06:17 20:10:37 27° 95° (E) 20:14:55 437.568
LilacSat-2 01 Jul 20:09:23 20:11:40 15° 268° (W) 20:13:57 437.200
DOVE 4 01 Jul 20:12:42 20:16:55 59° 259° (W) 20:21:02 437.250
CUBEBUG 2 01 Jul 20:18:38 20:20:42 13° 63° (ENE) 20:22:47 437.445
NOAA 18 01 Jul 20:23:38 20:27:11 17° 268° (W) 20:30:45 137.9125
COMPASS 1 01 Jul 20:26:12 20:29:34 23° 68° (ENE) 20:32:56 437.405
CUTE-I 01 Jul 20:34:54 20:37:49 15° 270° (W) 20:40:46 437.470
GONETS M04 01 Jul 20:35:21 20:43:05 35° 289° (WNW) 20:50:53
CANX-2 01 Jul 20:37:06 20:41:22 71° 76° (ENE) 20:45:40 2200.000
CUBESAT XI-V 01 Jul 20:39:45 20:41:07 11° 300° (WNW) 20:42:30 437.345
AUBIESAT-1 01 Jul 20:42:20 20:44:07 14° 60° (ENE) 20:45:55 437.475
CINEMA 3 01 Jul 20:42:41 20:46:49 81° 77° (ENE) 20:51:01 145.822/145.860
FUNcube-1 01 Jul 20:45:54 20:47:17 11° 61° (ENE) 20:48:41 145.935
HO-68 01 Jul 20:50:49 20:57:59 85° 253° (WSW) 21:05:13 435.675
SEEDS 01 Jul 20:53:57 20:58:10 68° 75° (ENE) 21:02:25 437.485
CUTE 1.7 + AOD 2 01 Jul 20:56:24 21:00:41 81° 260° (W) 21:05:00 437.475
UWE-3 01 Jul 20:57:02 21:00:24 24° 67° (ENE) 21:03:52 435.000/436.395/437.385
AO-85 01 Jul 21:02:11 21:07:10 38° 115° (ESE) 21:12:01 145.980
RS-15 01 Jul 21:08:04 21:20:30 80° 56° (ENE) 21:32:47 29.354- 29.394
AAUSAT CUBESAT 2 01 Jul 21:22:57 21:27:09 81° 75° (ENE) 21:31:22 437.432
M-CUBED/EXP-1 PRIME 01 Jul 21:23:11 21:26:22 57° 69° (ENE) 21:29:38 437.505
STRAND 1 01 Jul 21:45:08 21:49:51 37° 292° (WNW) 21:54:32 437.568
CUBEBUG 2 01 Jul 21:52:42 21:56:49 56° 260° (W) 22:01:03 437.445
Cosmos 2499 01 Jul 22:00:10 22:05:04 16° 302° (WNW) 22:10:07 435.465 / 435.565
COMPASS 1 01 Jul 22:01:18 22:04:59 29° 264° (W) 22:08:42 437.405
ZACube-1 01 Jul 22:03:06 22:07:19 83° 78° (ENE) 22:11:41 437.345
PRISM 01 Jul 22:04:37 22:08:42 64° 102° (ESE) 22:12:43 437.425
Oscar 11 01 Jul 22:05:55 22:10:16 84° 258° (WSW) 22:14:39 145.826/435.025
AUBIESAT-1 01 Jul 22:15:22 22:18:21 32° 257° (WSW) 22:21:23 437.475
FUNcube-1 01 Jul 22:18:42 22:22:54 70° 259° (WSW) 22:27:14 145.935
UWE-3 01 Jul 22:33:03 22:36:44 29° 264° (W) 22:40:32 435.000/436.395/437.385
SEEDS 01 Jul 22:33:53 22:34:19 10° 271° (W) 22:34:45 437.485
DELFI C3 01 Jul 22:39:57 22:43:59 76° 259° (W) 22:48:02 145.870
AO-85 01 Jul 22:42:46 22:47:42 35° 311° (NW) 22:52:27 145.980
HO-68 01 Jul 22:43:04 22:46:40 14° 272° (W) 22:50:16 435.675
HUMSAT D 01 Jul 22:44:54 22:48:59 54° 73° (ENE) 22:53:09 437.325/437.525
YUBILEINY 01 Jul 22:50:18 22:56:19 20° 62° (ENE) 23:02:18 435.215
ANTELSAT 01 Jul 23:02:25 23:05:59 21° 93° (E) 23:09:32 437.575/2403.000
RS-15 01 Jul 23:21:50 23:31:44 30° 258° (WSW) 23:41:34 29.354- 29.394
AISAT 01 Jul 23:24:18 23:27:20 19° 65° (ENE) 23:30:23 437.250
DX 1 01 Jul 23:31:41 23:34:25 17° 64° (ENE) 23:37:09 434.975-435.025
ESTCUBE 1 01 Jul 23:33:58 23:38:04 35° 70° (ENE) 23:42:12 437.505/2401.250
Cosmos 2504 01 Jul 23:38:54 23:41:57 12° 54° (NE) 23:44:56 435.465 / 435.565
PRISM 01 Jul 23:42:11 23:43:27 11° 298° (WNW) 23:44:43 437.425
